CW4896 Weather Reports


time (UTC)temp
F
wind
direction
speed
knots
gust
knots
rain 1hr
in
rain 24hr
in
rain mn
in
humidity
%
barometer
mb
20260508140300 45 304 0.0 0.0 0.00 0.00 0.00 91 1022.3
20260508134300 45 304 0.0 2.6 0.00 0.00 0.00 91 1022.0
20260508133300 45 304 0.0 2.6 0.00 0.00 0.00 91 1022.0
20260508131300 44 307 0.9 2.6 0.00 0.00 0.00 91 1021.7
20260508125300 44 309 0.9 4.3 0.00 0.00 0.00 91 1021.3
20260508124300 43 298 0.0 2.6 0.00 0.00 0.00 90 1021.3
20260508123300 43 296 0.0 1.7 0.00 0.00 0.00 90 1021.3
20260508122300 42 360 0.0 3.5 0.00 0.00 0.00 90 1021.0
20260508121300 41 297 0.9 3.5 0.00 0.00 0.00 90 1021.0
20260508120300 40 360 1.7 3.5 0.00 0.00 0.00 90 1021.0
20260508115300 39 360 0.0 4.3 0.00 0.00 0.00 89 1021.0
20260508114300 39 360 1.7 4.3 0.00 0.00 0.00 88 1021.0
20260508113300 39 360 0.0 0.0 0.00 0.00 0.00 88 1020.3
20260508112300 39 256 0.0 0.0 0.00 0.00 0.00 88 1020.3
20260508111300 39 360 0.0 0.0 0.00 0.00 0.00 87 1020.3
20260508110300 40 256 0.0 0.0 0.00 0.00 0.00 87 1020.0
20260508105300 40 257 0.0 0.0 0.00 0.00 0.00 87 1019.6
20260508104300 40 360 0.0 0.0 0.00 0.00 0.00 87 1019.6
20260508103300 40 360 0.0 0.0 0.00 0.00 0.00 87 1019.6
20260508102300 40 256 0.0 0.0 0.00 0.00 0.00 87 1019.6
20260508101300 41 360 0.0 0.0 0.00 0.00 0.00 87 1019.6
20260508100300 41 257 0.0 0.0 0.00 0.00 0.00 87 1019.3
20260508095300 41 257 0.0 0.0 0.00 0.00 0.00 86 1019.3
20260508094300 41 360 0.0 0.0 0.00 0.00 0.00 86 1019.3
20260508093300 42 257 0.0 0.0 0.00 0.00 0.00 86 1019.3
20260508092300 42 257 0.0 0.0 0.00 0.00 0.00 86 1019.0
20260508091300 42 257 0.0 0.0 0.00 0.00 0.00 86 1019.0
20260508090300 42 257 0.0 0.0 0.00 0.00 0.00 85 1019.0
20260508085300 43 254 0.0 0.0 0.00 0.00 0.00 85 1019.0
20260508083300 43 257 0.0 0.0 0.00 0.00 0.00 85 1018.6
20260508082300 44 257 0.0 0.0 0.00 0.00 0.00 85 1018.6
20260508081300 44 360 0.0 0.0 0.00 0.00 0.00 84 1018.3
20260508080300 44 257 0.0 0.0 0.00 0.00 0.00 84 1018.6
20260508075300 45 257 0.0 0.0 0.00 0.00 0.00 84 1018.3
20260508074300 45 360 0.0 0.0 0.00 0.00 0.00 84 1018.3
20260508073300 46 249 0.0 0.0 0.00 0.00 0.00 84 1018.3
20260508072300 46 360 0.0 0.0 0.00 0.00 0.00 84 1017.9
20260508071300 46 360 0.0 0.0 0.00 0.00 0.00 83 1018.3
20260508070300 47 360 0.0 0.0 0.00 0.00 0.00 83 1018.3
20260508065300 47 257 0.0 0.0 0.00 0.00 0.00 83 1018.3
20260508064300 47 257 0.0 0.0 0.00 0.00 0.00 83 1018.3
20260508063300 48 258 0.0 0.0 0.00 0.00 0.00 82 1018.3
20260508062300 48 258 0.0 0.0 0.00 0.00 0.00 82 1018.3
20260508061300 48 258 0.0 0.0 0.00 0.00 0.00 81 1017.9
20260508060300 49 258 0.0 0.0 0.00 0.00 0.00 82 1017.9
20260508054300 49 258 0.0 0.0 0.00 0.00 0.00 80 1017.9
20260508053300 50 360 0.0 0.0 0.00 0.00 0.00 79 1017.6
20260508052300 50 360 0.0 0.0 0.00 0.00 0.00 78 1017.6
20260508051300 51 360 0.0 0.0 0.00 0.00 0.00 78 1017.6
20260508045300 52 360 0.0 0.0 0.00 0.00 0.00 74 1017.6
20260508043300 54 360 0.0 4.3 0.00 0.00 0.00 71 1017.3
20260508042300 55 360 0.0 0.0 0.00 0.00 0.00 70 1016.9
20260508041300 56 360 0.0 0.0 0.00 0.00 0.00 68 1016.9
20260508035300 58 360 0.0 0.9 0.00 0.00 0.00 66 1016.6
20260508034300 60 360 0.0 0.0 0.00 0.00 0.00 63 1016.6
20260508033300 62 360 0.0 0.0 0.00 0.00 0.00 60 1016.3
20260508032300 63 360 0.0 0.0 0.00 0.00 0.00 59 1016.3
20260508031300 65 360 0.0 0.0 0.00 0.00 0.00 57 1015.9
20260508030300 66 360 0.0 0.0 0.00 0.00 0.00 56 1015.9
20260508025300 69 260 0.0 0.0 0.00 0.00 0.00 55 1015.9
20260508024300 71 261 0.0 0.0 0.00 0.00 0.00 54 1015.9
20260508023300 72 261 0.0 0.0 0.00 0.00 0.00 53 1015.9
20260508022300 73 360 0.0 0.0 0.00 0.00 0.00 54 1015.9
20260508021300 74 360 0.0 0.0 0.00 0.00 0.00 53 1015.9
20260508020300 74 261 0.0 0.0 0.00 0.00 0.00 52 1016.3
20260508015300 74 261 0.0 0.0 0.00 0.00 0.00 50 1016.3
20260508014300 74 260 0.0 0.0 0.00 0.00 0.00 49 1016.3
20260508012300 74 360 0.0 0.0 0.00 0.00 0.00 49 1016.3
20260508010300 73 297 0.0 6.1 0.00 0.00 0.00 52 1016.6
20260508005300 73 263 0.0 6.1 0.00 0.00 0.00 52 1016.6
20260508004300 73 273 0.0 0.9 0.00 0.00 0.00 52 1016.6
20260508003300 73 254 0.0 0.9 0.00 0.00 0.00 54 1016.6
20260508002300 73 282 0.0 4.3 0.00 0.00 0.00 53 1016.6
20260508000300 73 360 0.0 5.2 0.00 0.00 0.00 53 1016.9
20260507235300 72 295 0.0 1.7 0.00 0.00 0.00 55 1016.9
20260507234300 72 265 0.0 1.7 0.00 0.00 0.00 55 1016.9
20260507233300 72 256 0.0 8.7 0.00 0.00 0.00 57 1016.9
20260507232300 72 244 0.0 2.6 0.00 0.00 0.00 58 1017.3
20260507230300 72 259 0.0 2.6 0.00 0.00 0.00 61 1017.3
20260507225300 71 225 0.0 7.0 0.00 0.00 0.00 61 1017.6
20260507224300 70 244 0.0 7.0 0.00 0.00 0.00 61 1017.6
20260507223300 70 254 0.0 8.7 0.00 0.00 0.00 61 1017.6
20260507222300 70 271 0.0 5.2 0.00 0.00 0.00 62 1017.6
20260507221300 70 275 0.0 6.1 0.00 0.00 0.00 63 1017.9
20260507220300 69 267 0.0 5.2 0.00 0.00 0.00 65 1017.9
20260507215300 69 279 0.0 3.5 0.00 0.00 0.00 66 1017.9
20260507214300 68 265 0.0 6.1 0.00 0.00 0.00 66 1018.3
20260507213300 68 219 0.9 7.0 0.00 0.00 0.00 69 1018.3
20260507212300 67 238 0.9 7.8 0.00 0.00 0.00 68 1018.3
20260507211300 67 236 1.7 7.8 0.00 0.00 0.00 70 1018.3
20260507205300 66 271 0.0 7.8 0.00 0.00 0.00 72 1018.6
20260507204300 65 261 0.0 6.1 0.00 0.00 0.00 73 1019.0
20260507203300 65 259 0.0 5.2 0.00 0.00 0.00 74 1019.0
20260507202300 65 266 0.0 5.2 0.00 0.00 0.00 74 1019.0
20260507201300 64 250 0.0 5.2 0.00 0.00 0.00 77 1019.3
20260507195300 64 222 0.0 6.1 0.00 0.00 0.00 77 1019.3
20260507194300 63 196 0.0 5.2 0.00 0.00 0.00 78 1019.6
20260507193300 63 296 0.0 3.5 0.00 0.00 0.00 81 1019.6
20260507192300 62 252 0.9 6.1 0.00 0.00 0.00 81 1019.6
20260507191300 61 229 0.0 7.8 0.00 0.00 0.00 83 1020.0
20260507190300 60 230 0.0 4.3 0.00 0.00 0.00 83 1020.0
20260507185300 60 235 0.0 2.6 0.00 0.00 0.00 83 1020.0
20260507184300 59 227 0.0 2.6 0.00 0.00 0.00 84 1020.0
20260507183300 59 245 0.0 1.7 0.00 0.00 0.00 84 1020.0
20260507182300 58 251 0.0 0.0 0.00 0.00 0.00 85 1020.0
20260507181300 58 360 0.0 0.0 0.00 0.00 0.00 87 1020.0
20260507175300 57 253 0.0 1.7 0.00 0.00 0.00 87 1020.3
20260507174300 57 246 0.0 2.6 0.00 0.00 0.00 88 1020.3
20260507173300 56 244 0.0 2.6 0.00 0.00 0.00 88 1020.3
20260507172300 56 251 0.0 0.0 0.00 0.00 0.00 89 1020.3
20260507171300 55 258 0.0 0.0 0.00 0.00 0.00 89 1020.3
20260507170300 55 257 0.0 2.6 0.00 0.00 0.00 89 1020.3
20260507165300 55 257 0.0 2.6 0.00 0.00 0.00 90 1020.3
20260507164300 54 360 0.0 0.0 0.00 0.00 0.00 90 1020.7
20260507163300 54 360 0.0 0.0 0.00 0.00 0.00 90 1020.7
20260507154300 52 360 0.0 0.0 0.00 0.00 0.00 89 1020.7
20260507153300 52 360 0.0 0.0 0.00 0.00 0.00 89 1020.7
20260507152300 52 360 0.0 0.0 0.00 0.00 0.00 89 1020.7
20260507151300 52 360 0.0 0.0 0.00 0.00 0.00 89 1020.7
20260507145300 51 360 0.0 2.6 0.00 0.00 0.00 89 1020.7
20260507144300 51 360 0.0 2.6 0.00 0.00 0.00 89 1020.7
20260507143300 51 360 0.9 2.6 0.00 0.00 0.00 89 1020.7
20260507142300 51 360 0.0 0.0 0.00 0.00 0.00 89 1020.7
20260507141300 50 360 0.0 0.0 0.00 0.00 0.00 88 1020.7